Snowfall_Accumulation
0.0 0.0 0.0 0.0 0.0 0.0 0.0 0.0 0.0 0.0 0.0 0.0 0.0 0.0 0.0 0.0 0.0 0.0 0.0 nan nan nan nan nan nan nan nan nan nan nan nan nan nan nan nan nan nan nan
0.0 0.0 0.0 0.0 0.0 0.0 0.0 0.0 0.0 0.0 0.0 0.0 0.0 0.0 0.0 0.0 0.0 0.0 0.0 nan nan nan nan nan nan nan nan nan nan nan nan nan nan nan nan nan nan nan
0.0 0.0 0.0 0.0 0.0 0.0 0.0 0.0 0.0 0.0 0.0 0.0 0.0 0.0 0.0 0.0 0.0 0.0 0.0 0.0 0.0 nan nan nan nan nan nan nan nan nan nan nan nan nan nan nan nan nan
0.0 0.0 0.0 0.0 0.0 0.0 0.0 0.0 0.0 0.0 0.0 0.0 0.0 0.0 0.0 0.0 0.0 0.0 0.0 0.0 0.0 nan nan nan nan nan nan nan nan nan nan nan nan nan nan nan nan nan
0.0 0.0 0.0 0.0 0.0 0.0 0.0 0.0 0.0 0.0 0.0 0.0 0.0 0.0 0.0 0.0 0.0 0.0 0.0 0.0 0.0 nan nan nan nan nan nan nan nan nan nan nan nan nan nan nan nan nan
0.0 0.0 0.0 0.0 0.0 0.0 0.0 0.0 0.0 0.0 0.0 0.0 0.0 0.0 0.0 0.0 0.0 0.0 0.0 0.0 0.0 0.0 nan nan nan nan nan nan nan nan nan nan nan nan nan nan nan nan
0.0 0.0 0.0 nan nan nan 0.0 0.0 0.0 0.0 0.0 0.0 0.0 0.0 0.0 0.0 0.0 0.0 0.0 0.0 0.0 0.0 0.0 0.0 0.0 0.0 0.0 nan nan nan nan nan nan nan nan nan nan nan
0.0 0.0 0.0 0.0 0.0 nan nan nan nan 0.0 0.0 0.0 0.0 0.0 0.0 0.0 0.0 0.0 0.0 0.0 0.0 0.0 0.0 0.0 0.0 0.0 0.0 0.0 nan nan nan nan nan nan nan nan nan nan
0.0 0.0 0.0 0.0 nan 0.0 nan nan nan nan nan 0.0 0.0 0.0 0.0 0.0 0.0 0.0 0.0 0.0 0.0 0.0 0.0 0.0 0.0 0.0 0.0 0.0 nan nan nan nan nan nan nan nan nan nan
0.0 0.0 0.0 0.0 0.0 0.0 0.0 0.0 0.0 0.0 0.0 0.0 0.0 0.0 0.0 0.0 0.0 0.0 0.0 0.0 0.0 0.0 0.0 0.2 0.0 0.0 0.0 0.0 nan nan nan nan nan nan nan nan nan nan
0.0 0.0 0.0 0.0 nan nan 0.0 0.0 0.0 0.0 nan nan nan nan nan nan nan 0.0 0.2 0.3 0.2 0.0 0.0 0.0 0.0 0.1 0.0 0.0 0.0 nan nan nan nan nan nan nan nan nan
0.0 0.0 nan 0.0 nan nan 0.0 0.0 0.0 0.0 0.0 0.0 0.0 0.0 nan nan nan 0.0 0.2 0.7 0.6 0.5 0.1 0.7 0.3 0.4 0.7 0.1 0.0 0.0 0.0 nan nan nan nan nan nan 0.0
0.0 0.0 0.0 nan nan nan nan 0.0 0.0 0.0 0.0 0.0 0.0 0.0 0.0 0.0 0.0 0.0 0.0 0.5 1.2 0.8 0.2 0.9 1.7 0.6 1.0 0.7 0.2 0.2 0.0 0.0 0.0 0.0 nan nan nan 0.0
0.0 0.1 0.1 nan nan nan nan nan nan nan 0.0 0.1 0.4 0.5 0.6 0.8 0.6 0.4 0.1 0.2 0.3 0.7 0.1 0.1 6.9 1.7 3.1 1.7 0.8 0.4 0.2 0.1 0.1 0.0 0.0 nan nan nan
0.0 0.0 nan nan nan nan nan nan nan 0.5 0.7 1.3 1.3 1.5 1.7 1.3 1.2 1.5 0.7 0.9 2.0 0.5 0.0 1.1 3.0 1.4 2.4 3.5 2.9 0.9 0.9 0.4 0.2 0.3 0.2 0.1 0.1 0.0
nan 0.0 nan 0.0 nan nan 0.0 0.0 0.0 0.1 0.6 0.8 0.9 0.7 0.8 1.7 1.6 1.4 3.2 2.7 3.9 2.5 0.3 1.0 1.2 1.1 3.8 1.2 2.2 2.3 0.8 5.2 0.7 0.5 0.5 0.2 0.1 0.0
nan 0.0 0.0 0.0 0.0 0.0 0.0 0.0 0.0 0.0 0.4 0.4 0.7 0.9 1.0 1.6 2.2 2.2 3.8 3.9 6.9 4.5 3.6 1.7 0.3 0.3 1.0 1.6 6.0 1.5 2.1 1.7 0.7 1.3 1.1 0.6 0.3 0.1
0.0 0.0 0.0 0.1 0.1 0.0 0.0 0.0 0.1 0.4 0.5 0.8 1.0 1.2 2.4 3.6 4.8 5.8 5.8 6.1 8.6 5.6 6.2 4.1 4.5 6.5 4.6 2.7 3.0 4.8 2.0 2.3 1.4 1.2 0.8 1.7 0.7 0.1
0.1 0.2 0.2 0.2 0.3 0.3 0.4 0.7 1.2 0.7 0.3 2.1 2.0 2.3 2.9 4.3 5.6 7.8 7.1 6.2 6.6 5.6 5.2 5.9 10.6 13.6 16.4 11.7 1.9 nan 6.5 3.1 2.5 2.9 1.5 1.5 1.7 0.5
0.3 0.4 0.5 0.4 0.5 0.7 0.9 1.6 1.7 1.8 2.3 2.6 2.9 3.4 4.8 7.0 9.0 8.7 6.5 9.2 6.9 8.0 9.9 8.4 11.6 15.4 21.3 17.4 14.4 4.4 nan 4.5 4.0 5.2 4.7 2.0 1.2 nan
0.3 0.4 0.3 0.5 0.8 1.1 1.4 2.0 2.1 3.9 5.2 6.1 4.5 5.2 5.4 7.4 7.4 5.8 5.7 4.1 nan 11.0 14.6 10.6 7.6 nan 9.5 10.6 16.4 6.1 3.3 nan 1.9 7.4 5.8 7.5 5.5 3.4
0.4 0.6 0.6 0.9 1.2 1.7 2.7 3.3 4.5 4.7 5.1 4.8 5.4 6.2 5.4 5.4 7.6 6.4 6.5 10.2 6.8 7.4 10.7 9.2 7.3 9.6 14.0 14.7 13.2 7.6 5.8 2.6 nan nan nan nan 14.0 19.6
0.6 0.7 0.9 1.3 1.6 2.3 3.3 5.2 6.4 6.7 5.9 6.7 6.8 5.9 5.7 9.2 4.2 5.1 6.9 6.4 8.4 12.1 10.1 12.3 9.5 9.5 11.0 12.8 14.6 10.9 7.8 7.8 4.1 4.3 3.6 nan nan nan
Water_Equivalent
0.00 0.00 0.00 0.00 0.00 0.00 0.00 0.00 0.00 0.00 0.00 0.00 0.00 0.00 0.00 0.00 0.00 0.00 0.00 nan nan nan nan nan nan nan nan nan nan nan nan nan nan nan nan nan nan nan
0.00 0.00 0.00 0.00 0.00 0.00 0.00 0.00 0.00 0.00 0.00 0.00 0.00 0.00 0.00 0.00 0.00 0.00 0.00 nan nan nan nan nan nan nan nan nan nan nan nan nan nan nan nan nan nan nan
0.00 0.00 0.00 0.00 0.00 0.00 0.00 0.00 0.00 0.00 0.00 0.00 0.00 0.00 0.00 0.00 0.00 0.00 0.00 0.00 0.00 nan nan nan nan nan nan nan nan nan nan nan nan nan nan nan nan nan
0.00 0.00 0.00 0.00 0.00 0.00 0.00 0.00 0.00 0.00 0.00 0.00 0.00 0.00 0.00 0.00 0.00 0.00 0.00 0.00 0.00 nan nan nan nan nan nan nan nan nan nan nan nan nan nan nan nan nan
0.00 0.00 0.00 0.00 0.00 0.00 0.00 0.00 0.00 0.00 0.00 0.00 0.00 0.00 0.00 0.00 0.00 0.00 0.00 0.00 0.00 nan nan nan nan nan nan nan nan nan nan nan nan nan nan nan nan nan
0.00 0.00 0.00 0.00 0.00 0.00 0.00 0.00 0.00 0.00 0.00 0.00 0.00 0.00 0.00 0.00 0.00 0.00 0.00 0.00 0.00 0.00 nan nan nan nan nan nan nan nan nan nan nan nan nan nan nan nan
0.00 0.00 0.00 nan nan nan 0.00 0.00 0.00 0.00 0.00 0.00 0.00 0.00 0.00 0.00 0.00 0.00 0.00 0.00 0.00 0.00 0.00 0.00 0.00 0.00 0.00 nan nan nan nan nan nan nan nan nan nan nan
0.00 0.00 0.00 0.00 0.00 nan nan nan nan 0.00 0.00 0.00 0.00 0.00 0.00 0.00 0.00 0.00 0.00 0.00 0.02 0.00 0.00 0.00 0.00 0.00 0.00 0.00 nan nan nan nan nan nan nan nan nan nan
0.00 0.00 0.00 0.00 nan 0.00 nan nan nan nan nan 0.00 0.00 0.00 0.00 0.00 0.00 0.00 0.00 0.00 0.00 0.00 0.00 0.00 0.00 0.00 0.00 0.00 nan nan nan nan nan nan nan nan nan nan
0.00 0.00 0.00 0.00 0.00 0.00 0.00 0.00 0.00 0.00 0.00 0.00 0.00 0.00 0.00 0.00 0.00 0.00 0.00 0.00 0.00 0.00 0.00 0.06 0.00 0.00 0.00 0.00 nan nan nan nan nan nan nan nan nan nan
0.00 0.00 0.00 0.00 nan nan 0.00 0.00 0.00 0.00 nan nan nan nan nan nan nan 0.02 0.08 0.12 0.07 0.02 0.00 0.01 0.01 0.03 0.01 0.00 0.00 nan nan nan nan nan nan nan nan nan
0.00 0.00 nan 0.00 nan nan 0.00 0.00 0.00 0.00 0.00 0.00 0.00 0.00 nan nan nan 0.00 0.10 0.29 0.22 0.20 0.05 0.27 0.13 0.14 0.27 0.05 0.02 0.00 0.00 nan nan nan nan nan nan 0.00
0.00 0.00 0.00 nan nan nan nan 0.00 0.00 0.00 0.00 0.00 0.00 0.00 0.00 0.00 0.00 0.01 0.01 0.18 0.46 0.33 0.07 0.35 0.68 0.26 0.39 0.26 0.09 0.06 0.01 0.00 0.00 0.00 nan nan nan 0.00
0.00 0.04 0.02 nan nan nan nan nan nan nan 0.01 0.04 0.15 0.18 0.22 0.24 0.21 0.16 0.04 0.06 0.12 0.25 0.05 0.04 2.72 0.64 1.05 0.53 0.29 0.15 0.09 0.05 0.06 0.01 0.00 nan nan nan
0.00 0.00 nan nan nan nan nan nan nan 0.14 0.20 0.31 0.31 0.40 0.45 0.41 0.35 0.45 0.21 0.27 0.65 0.17 0.02 0.45 1.14 0.55 0.85 0.99 0.75 0.32 0.35 0.15 0.09 0.14 0.09 0.06 0.03 0.00
nan 0.01 nan 0.00 nan nan 0.00 0.00 0.00 0.03 0.15 0.22 0.25 0.21 0.25 0.53 0.51 0.49 0.94 0.86 1.12 0.70 0.10 0.35 0.42 0.40 1.09 0.39 0.67 0.58 0.25 1.19 0.26 0.20 0.18 0.08 0.03 0.00
nan 0.00 0.00 0.00 0.00 0.00 0.00 0.00 0.00 0.01 0.15 0.14 0.22 0.26 0.31 0.51 0.64 0.72 1.13 1.21 1.58 1.06 0.85 0.57 0.11 0.10 0.33 0.48 1.25 0.44 0.63 0.51 0.27 0.50 0.40 0.22 0.11 0.04
0.00 0.00 0.00 0.03 0.05 0.00 0.01 0.01 0.02 0.13 0.17 0.26 0.33 0.38 0.66 0.92 1.17 1.46 1.53 1.51 1.69 1.15 1.21 1.01 1.10 1.30 1.19 0.77 0.94 1.19 0.58 0.67 0.53 0.44 0.31 0.46 0.23 0.05
0.01 0.07 0.08 0.09 0.10 0.12 0.15 0.21 0.35 0.23 0.12 0.64 0.61 0.69 0.86 1.13 1.43 1.70 1.57 1.37 1.27 1.12 1.12 1.33 2.01 2.23 2.27 1.55 0.50 nan 1.48 0.88 0.75 0.81 0.46 0.45 0.51 0.20
0.10 0.13 0.15 0.13 0.15 0.22 0.28 0.45 0.50 0.51 0.64 0.74 0.82 0.98 1.33 1.76 1.95 1.73 1.31 1.57 1.32 1.48 1.69 1.61 2.08 2.57 3.31 2.70 2.06 1.07 nan 1.18 0.98 1.07 0.98 0.51 0.35 nan
0.12 0.16 0.11 0.18 0.24 0.33 0.41 0.56 0.56 1.02 1.40 1.63 1.19 1.42 1.47 1.86 1.64 1.24 1.13 0.85 nan 1.81 2.01 1.48 1.54 nan 2.54 2.19 2.33 1.04 0.80 nan 0.44 1.55 1.33 1.22 0.91 0.67
0.13 0.19 0.19 0.26 0.34 0.49 0.74 0.90 1.20 1.26 1.39 1.25 1.44 1.69 1.45 1.36 1.60 1.23 1.16 1.75 1.18 1.22 1.61 1.71 1.55 1.98 2.53 2.34 1.84 0.99 0.92 0.60 nan nan nan nan 2.44 3.02
0.21 0.22 0.30 0.39 0.49 0.64 0.91 1.34 1.67 1.70 1.50 1.75 1.76 1.50 1.40 1.82 0.90 1.03 1.25 1.17 1.47 1.88 1.58 1.69 1.55 1.65 1.76 2.06 2.05 1.45 0.99 1.08 0.76 0.81 0.84 nan nan nan
SL_Ratio
nan nan nan nan nan nan nan nan nan nan nan nan nan nan nan nan nan nan nan nan nan nan nan nan nan nan nan nan nan nan nan nan nan nan nan nan nan nan
nan nan nan nan nan nan nan nan nan nan nan nan nan nan nan nan nan nan nan nan nan nan nan nan nan nan nan nan nan nan nan nan nan nan nan nan nan nan
nan nan nan nan nan nan nan nan nan nan nan nan nan nan nan nan nan nan nan nan nan nan nan nan nan nan nan nan nan nan nan nan nan nan nan nan nan nan
nan nan nan nan nan nan nan nan nan nan nan nan nan nan nan nan nan nan nan nan nan nan nan nan nan nan nan nan nan nan nan nan nan nan nan nan nan nan
nan nan nan nan nan nan nan nan nan nan nan nan nan nan nan nan nan nan nan nan nan nan nan nan nan nan nan nan nan nan nan nan nan nan nan nan nan nan
nan nan nan nan nan nan nan nan nan nan nan nan nan nan nan nan nan nan nan nan nan nan nan nan nan nan nan nan nan nan nan nan nan nan nan nan nan nan
nan nan nan nan nan nan nan nan nan nan nan nan nan nan nan nan nan nan nan nan nan nan nan nan nan nan nan nan nan nan nan nan nan nan nan nan nan nan
nan nan nan nan nan nan nan nan nan nan nan nan nan nan nan nan nan nan nan nan 2.5 nan nan nan nan nan nan nan nan nan nan nan nan nan nan nan nan nan
nan nan nan nan nan nan nan nan nan nan nan nan nan nan nan nan nan nan nan nan nan nan nan nan nan nan nan nan nan nan nan nan nan nan nan nan nan nan
nan nan nan nan nan nan nan nan nan nan nan nan nan nan nan nan nan nan nan nan nan nan nan 2.5 nan nan nan nan nan nan nan nan nan nan nan nan nan nan
nan nan nan nan nan nan nan nan nan nan nan nan nan nan nan nan nan 2.5 2.5 2.5 2.5 2.5 nan 2.6 2.4 2.5 2.5 nan nan nan nan nan nan nan nan nan nan nan
nan nan nan nan nan nan nan nan nan nan nan nan nan nan nan nan nan nan 2.5 2.5 2.5 2.5 2.5 2.5 2.5 2.5 2.5 2.5 2.5 nan nan nan nan nan nan nan nan nan
nan nan nan nan nan nan nan nan nan nan nan nan nan nan 0.0 0.0 nan 2.5 2.3 2.5 2.6 2.5 2.5 2.5 2.5 2.5 2.5 2.5 2.5 2.5 2.3 nan nan nan nan nan nan nan
2.9 2.5 2.5 nan nan nan nan nan nan nan 2.4 2.5 2.6 2.9 2.9 3.2 2.8 2.7 3.1 2.6 2.5 2.6 2.6 2.6 2.5 2.6 3.0 3.1 2.8 2.5 2.5 2.5 2.5 2.6 nan nan nan nan
nan nan nan nan nan nan nan nan nan 3.4 3.8 4.2 4.2 3.8 3.8 3.2 3.3 3.5 3.5 3.5 3.1 2.9 2.5 2.5 2.7 2.6 2.8 3.5 3.8 3.0 2.5 2.5 2.5 2.5 2.5 2.5 2.5 2.9
nan 2.3 nan nan nan nan nan nan nan 4.1 3.7 3.6 3.7 3.4 3.1 3.1 3.1 2.9 3.4 3.2 3.5 3.5 2.5 2.8 2.8 2.7 3.5 3.2 3.3 4.0 3.0 4.4 2.5 2.5 2.5 2.5 2.5 nan
nan 0.0 5.0 nan 3.3 nan nan 0.0 nan 3.8 3.0 3.0 3.3 3.3 3.2 3.2 3.5 3.1 3.4 3.2 4.4 4.3 4.2 3.1 2.8 2.8 2.9 3.3 4.8 3.3 3.3 3.3 2.5 2.5 2.7 2.6 2.5 2.4
6.7 7.0 nan 2.5 2.6 0.0 3.1 3.0 2.8 2.8 3.1 3.0 3.1 3.1 3.6 3.9 4.1 4.0 3.8 4.1 5.1 4.8 5.1 4.1 4.1 5.0 3.9 3.5 3.2 4.0 3.4 3.4 2.7 2.6 2.5 3.7 2.9 2.5
5.8 2.5 2.6 2.6 2.7 2.8 3.0 3.2 3.3 3.0 2.9 3.2 3.3 3.3 3.4 3.8 3.9 4.6 4.5 4.5 5.2 5.1 4.7 4.4 5.3 6.1 7.2 7.5 3.8 nan 4.4 3.5 3.3 3.6 3.2 3.5 3.4 2.6
2.8 2.9 3.1 3.0 3.2 3.3 3.4 3.5 3.5 3.5 3.6 3.6 3.6 3.5 3.6 4.0 4.6 5.0 5.0 5.9 5.2 5.4 5.9 5.2 5.6 6.0 6.4 6.5 7.0 4.1 nan 3.8 4.1 4.9 4.8 3.9 3.4 nan
2.7 2.8 2.7 3.0 3.3 3.3 3.5 3.6 3.8 3.8 3.7 3.7 3.7 3.7 3.7 4.0 4.5 4.7 5.0 4.8 nan 6.0 7.3 7.2 4.9 nan 3.7 4.9 7.0 5.9 4.1 nan 4.3 4.7 4.4 6.1 6.0 5.1
2.9 3.3 3.2 3.3 3.5 3.5 3.6 3.7 3.7 3.7 3.7 3.8 3.8 3.7 3.7 3.9 4.7 5.2 5.6 5.8 5.8 6.0 6.6 5.4 4.7 4.8 5.5 6.3 7.2 7.7 6.2 4.4 nan nan nan nan 5.7 6.5
3.0 3.3 3.2 3.2 3.3 3.5 3.7 3.9 3.9 3.9 3.9 3.8 3.9 4.0 4.1 5.1 4.6 4.9 5.5 5.5 5.7 6.4 6.4 7.3 6.2 5.8 6.2 6.2 7.1 7.5 7.9 7.2 5.5 5.3 4.2 nan nan nan